Home   Weather   London   Past weeks

Flag for Canada Past Weather in London, Ontario, Canada — Yesterday and Last 2 Weeks

Now
55 °F

Passing clouds.


Feels Like: 54 °F
Forecast: 53 / 65 °F
Wind: 7 mph from East

Location: London Weather Station

Current Time: Sep 25, 2016 at 10:01:01 PM

Latest Report: Sep 25, 2016 at 9:00 PM


Visibility: 15 mi

Pressure: 30.13 "Hg

Humidity: 77%

Dew Point: 48 °F

Location of LondonLocation

Past Weather in London — Graph

°F

London Temperature Yesterday

Maximum temperature yesterday: 66 °F (at 4:00 PM)
Minimum temperature yesterday: 46 °F (at 7:00 AM)
Average temperature yesterday: 55 °F

High & Low Weather Summary for the Past Weeks

 TemperatureHumidityPressure
High84 °F (Sep 22, 2:00 PM)100% (Sep 11, 11:00 PM)30.34 "Hg (Sep 11, 11:00 PM)
Low45 °F (Sep 25, 3:00 AM)36% (Sep 20, 5:00 PM)29.80 "Hg (Sep 10, 9:00 PM)
Average64 °F78%30.12 "Hg
* Reported Sep 10 9:00 PM — Sep 25 9:00 PM, London, Weather by CustomWeather, © 2016

Note: Actual official high and low records may vary slightly from our data, if they occured in-between our weather recording intervals... More about our weather records

Advertising

London Weather History for the Previous 24 Hours

Scroll right to see more
 ConditionsComfort  
Time TempWeatherWind HumidityBarometerVisibility
9:00 PM
Sun, Sep 25
55 °FPassing clouds.7 mph77%30.13 "Hg15 mi
8:00 PM57 °FPassing clouds.8 mph72%30.12 "Hg15 mi
7:00 PM63 °FPartly sunny.8 mph64%30.13 "Hg15 mi
6:00 PM66 °FPartly sunny.10 mph52%30.13 "Hg15 mi
5:00 PM68 °FPartly sunny.10 mph46%30.14 "Hg15 mi
4:00 PM68 °FPartly sunny.7 mph43%30.16 "Hg15 mi
3:00 PM68 °FPartly sunny.3 mph46%30.19 "Hg15 mi
2:00 PM66 °FPartly sunny.3 mph46%30.20 "Hg15 mi
1:00 PM64 °FPartly sunny.7 mph46%30.22 "Hg15 mi
12:00 PM64 °FScattered clouds.10 mph49%30.23 "Hg15 mi
11:00 AM61 °FScattered clouds.9 mph63%30.26 "Hg15 mi
10:00 AM57 °FPassing clouds.12 mph72%30.25 "Hg15 mi
9:00 AM54 °FPassing clouds.7 mph77%30.26 "Hg15 mi
8:00 AM46 °FPassing clouds.8 mph87%30.27 "Hg15 mi
7:00 AM45 °FPassing clouds.7 mph87%30.25 "Hg15 mi
6:00 AM45 °FClear.6 mph87%30.24 "Hg15 mi
5:00 AM45 °FClear.5 mph87%30.24 "Hg15 mi
4:00 AM45 °FClear.5 mph87%30.25 "Hg15 mi
3:00 AM45 °FClear.3 mph87%30.26 "Hg15 mi
2:00 AM46 °FClear.6 mph82%30.26 "Hg15 mi
1:00 AM48 °FClear.8 mph76%30.26 "Hg15 mi
12:00 AM50 °FClear.5 mph71%30.26 "Hg15 mi
11:00 PM
Sat, Sep 24
48 °FClear.6 mph76%30.24 "Hg15 mi
10:00 PM52 °FClear.No wind72%30.24 "Hg15 mi
Weather by CustomWeather, © 2016

See weather overviewHow to use our weather pages